Tracking 19164 objects as of 22-May-2018
HD Live streaming from Space Station
objects crossing your sky now

CXBN-2

Track CXBN-2 now!
10-day predictions
CXBN-2 is classified as:


NORAD ID: 42704
Int'l Code: 1998-067LM
Perigee: 365.3 km
Apogee: 370.1 km
Inclination: 51.6 °
Period: 91.8 minutes
Semi major axis: 6738 km
RCS: Unknown
Launch date: November 20, 1998
Source: United States (US)
Launch site: TYURATAM MISSILE AND SPACE COMPLEX (TTMTR)
Uplink (MHz):
Downlink (MHz): 437.075
Beacon (MHz):
Mode: 9600bps FSK
Call sign:
Status:

aabbcc
Your satellite tracking list
Your tracking list is empty




NASA's NSSDC Master Catalog

Two Line Element Set (TLE):
1 42704U 98067LM  18141.24616489  .00018062  00000-0  15527-3 0  9992
2 42704  51.6355 133.3441 0003586  61.3153 298.8204 15.69409311 57693
Source of the keplerian elements: AFSPC